TOM984P EGCC-EGGW

Flight info

Callsign TOM984P
Flight time 0h 42m
Altitude 19000
Route LISTO L612 HON L15 FINMA
Aircraft B789/H-SDE1E2E3FGHIJ2J3J4J5M1RWXY/LB1D1

Departure

Time 2026-05-05 18:03
Airport Manchester Airport (EGCC)

Arrival

Time 2026-05-05 18:45
Airport London Luton Airport (EGGW)
Time Latitude Longitude Altitude Speed Heading
2026-05-05 17:31 53.36518 -2.27867 260 ft 0 kts 45°
2026-05-05 17:52 53.36517 -2.27869 261 ft 2 kts 45°
2026-05-05 17:52 53.36499 -2.27900 261 ft 4 kts 45°
2026-05-05 17:52 53.36483 -2.27926 261 ft 4 kts 56°
2026-05-05 17:53 53.36476 -2.27963 261 ft 4 kts 104°
2026-05-05 17:53 53.36487 -2.27998 261 ft 3 kts 135°
2026-05-05 17:53 53.36506 -2.28030 261 ft 4 kts 135°
2026-05-05 17:53 53.36517 -2.28047 261 ft 5 kts 135°
2026-05-05 17:57 53.36516 -2.28047 261 ft 0 kts 135°
2026-05-05 17:57 53.36481 -2.28002 261 ft 13 kts 146°
2026-05-05 17:57 53.36413 -2.27936 261 ft 10 kts 177°
2026-05-05 17:58 53.36356 -2.27995 261 ft 11 kts 223°
2026-05-05 17:58 53.36289 -2.28061 261 ft 12 kts 197°
2026-05-05 17:58 53.36209 -2.28054 261 ft 11 kts 141°
2026-05-05 17:58 53.36146 -2.27961 261 ft 13 kts 140°
2026-05-05 17:59 53.36071 -2.27862 261 ft 15 kts 143°
2026-05-05 17:59 53.35986 -2.27753 261 ft 16 kts 148°
2026-05-05 17:59 53.35876 -2.27729 260 ft 17 kts 182°
2026-05-05 17:59 53.35740 -2.27750 253 ft 23 kts 186°
2026-05-05 18:00 53.35569 -2.27780 244 ft 25 kts 191°
2026-05-05 18:00 53.35438 -2.27949 243 ft 24 kts 224°
2026-05-05 18:00 53.35322 -2.28136 240 ft 23 kts 224°
2026-05-05 18:00 53.35205 -2.28355 237 ft 26 kts 231°
2026-05-05 18:01 53.35088 -2.28599 239 ft 23 kts 231°
2026-05-05 18:01 53.34986 -2.28792 233 ft 23 kts 226°
2026-05-05 18:01 53.34879 -2.28979 227 ft 23 kts 227°
2026-05-05 18:01 53.34772 -2.29185 223 ft 22 kts 230°
2026-05-05 18:02 53.34671 -2.29328 219 ft 19 kts 196°
2026-05-05 18:02 53.34555 -2.29300 223 ft 15 kts 145°
2026-05-05 18:02 53.34541 -2.29220 223 ft 6 kts 62°
2026-05-05 18:02 53.34619 -2.29055 225 ft 38 kts 51°
2026-05-05 18:03 53.34919 -2.28437 238 ft 99 kts 51°
2026-05-05 18:03 53.35481 -2.27277 276 ft 154 kts 51°
2026-05-05 18:03 53.36175 -2.25863 926 ft 157 kts 51°
2026-05-05 18:03 53.36859 -2.24468 1783 ft 153 kts 50°
2026-05-05 18:04 53.37518 -2.23088 2430 ft 153 kts 51°
2026-05-05 18:04 53.38175 -2.21670 2953 ft 155 kts 51°
2026-05-05 18:04 53.38820 -2.20191 3416 ft 162 kts 59°
2026-05-05 18:04 53.38853 -2.18192 3438 ft 193 kts 108°
2026-05-05 18:05 53.37856 -2.16499 3544 ft 226 kts 152°
2026-05-05 18:05 53.36252 -2.16010 3963 ft 241 kts 173°
2026-05-05 18:05 53.34542 -2.15747 4461 ft 253 kts 176°
2026-05-05 18:05 53.32789 -2.16229 4943 ft 263 kts 197°
2026-05-05 18:06 53.31041 -2.17147 5661 ft 264 kts 195°
2026-05-05 18:06 53.29822 -2.17584 6112 ft 268 kts 189°
2026-05-05 18:06 53.27341 -2.17916 7000 ft 272 kts 183°
2026-05-05 18:06 53.25438 -2.18114 7622 ft 277 kts 186°
2026-05-05 18:07 53.23504 -2.18431 8259 ft 281 kts 188°
2026-05-05 18:07 53.21539 -2.18778 8927 ft 286 kts 187°
2026-05-05 18:07 53.19548 -2.19094 9638 ft 288 kts 187°
2026-05-05 18:07 53.17540 -2.19398 10282 ft 293 kts 187°
2026-05-05 18:08 53.15456 -2.19715 10611 ft 308 kts 186°
2026-05-05 18:08 53.13276 -2.19280 10765 ft 331 kts 162°
2026-05-05 18:08 53.11100 -2.17779 11078 ft 346 kts 157°
2026-05-05 18:08 53.08857 -2.16090 11420 ft 360 kts 157°
2026-05-05 18:09 53.06507 -2.14430 11796 ft 372 kts 159°
2026-05-05 18:09 53.04095 -2.12820 12423 ft 376 kts 159°
2026-05-05 18:09 53.01660 -2.11166 13067 ft 380 kts 159°
2026-05-05 18:09 52.99212 -2.09458 13719 ft 384 kts 158°
2026-05-05 18:10 52.96736 -2.07735 14260 ft 388 kts 159°
2026-05-05 18:10 52.94261 -2.06042 14815 ft 391 kts 159°
2026-05-05 18:10 52.91710 -2.04301 15412 ft 393 kts 159°
2026-05-05 18:10 52.89172 -2.02558 15953 ft 396 kts 159°
2026-05-05 18:11 52.86647 -2.00823 16519 ft 398 kts 159°
2026-05-05 18:11 52.84078 -1.99066 17080 ft 401 kts 159°
2026-05-05 18:11 52.81486 -1.97298 17611 ft 404 kts 159°
2026-05-05 18:11 52.78876 -1.95518 18138 ft 406 kts 159°
2026-05-05 18:12 52.76253 -1.93731 18576 ft 410 kts 159°
2026-05-05 18:12 52.73605 -1.91929 18852 ft 411 kts 159°
2026-05-05 18:12 52.70977 -1.90142 18995 ft 408 kts 159°
2026-05-05 18:12 52.68352 -1.88361 18984 ft 407 kts 159°
2026-05-05 18:13 52.65742 -1.86592 18986 ft 405 kts 159°
2026-05-05 18:13 52.63129 -1.84823 18986 ft 405 kts 159°
2026-05-05 18:13 52.60524 -1.83062 18984 ft 405 kts 160°
2026-05-05 18:13 52.57917 -1.81302 18984 ft 404 kts 160°
2026-05-05 18:14 52.55316 -1.79549 18987 ft 404 kts 160°
2026-05-05 18:14 52.52711 -1.77795 18984 ft 404 kts 160°
2026-05-05 18:14 52.50112 -1.76047 18986 ft 404 kts 159°
2026-05-05 18:14 52.47544 -1.74322 18989 ft 403 kts 159°
2026-05-05 18:15 52.44950 -1.72581 18986 ft 403 kts 159°
2026-05-05 18:15 52.42352 -1.70841 18987 ft 403 kts 159°
2026-05-05 18:15 52.39755 -1.69104 18987 ft 403 kts 159°
2026-05-05 18:15 52.37165 -1.67347 18990 ft 402 kts 158°
2026-05-05 18:16 52.34800 -1.64870 18978 ft 407 kts 141°
2026-05-05 18:16 52.32805 -1.61577 18991 ft 408 kts 135°
2026-05-05 18:16 52.30874 -1.58165 18988 ft 408 kts 134°
2026-05-05 18:16 52.28939 -1.54802 18992 ft 407 kts 135°
2026-05-05 18:17 52.26956 -1.51464 18990 ft 407 kts 135°
2026-05-05 18:17 52.24983 -1.48141 18992 ft 407 kts 135°
2026-05-05 18:17 52.23029 -1.44802 18990 ft 404 kts 135°
2026-05-05 18:17 52.21097 -1.41496 18690 ft 403 kts 135°
2026-05-05 18:18 52.19142 -1.38183 18212 ft 406 kts 135°
2026-05-05 18:18 52.17196 -1.34896 17942 ft 404 kts 135°
2026-05-05 18:18 52.15255 -1.31617 17453 ft 408 kts 135°
2026-05-05 18:18 52.13291 -1.28289 16939 ft 406 kts 135°
2026-05-05 18:19 52.11335 -1.24982 16460 ft 407 kts 135°
2026-05-05 18:19 52.09363 -1.21665 15991 ft 407 kts 135°
2026-05-05 18:19 52.07428 -1.18410 15552 ft 393 kts 135°
2026-05-05 18:19 52.05557 -1.15263 15106 ft 381 kts 135°
2026-05-05 18:20 52.03745 -1.12219 14672 ft 370 kts 135°
2026-05-05 18:20 52.02547 -1.10210 14354 ft 363 kts 135°
2026-05-05 18:20 52.00950 -1.07154 13917 ft 355 kts 123°
2026-05-05 18:20 52.00079 -1.03464 13407 ft 348 kts 101°
2026-05-05 18:21 52.00034 -0.99601 12925 ft 340 kts 83°
2026-05-05 18:21 52.00319 -0.95857 12575 ft 329 kts 81°
2026-05-05 18:21 52.00610 -0.92221 12246 ft 319 kts 82°
2026-05-05 18:21 52.00867 -0.88681 11914 ft 313 kts 82°
2026-05-05 18:22 52.01107 -0.85195 11597 ft 309 kts 82°
2026-05-05 18:22 52.01352 -0.81746 11292 ft 307 kts 82°
2026-05-05 18:22 52.01601 -0.78285 10982 ft 309 kts 82°
2026-05-05 18:22 52.01907 -0.74836 10688 ft 307 kts 75°
2026-05-05 18:23 52.02888 -0.71796 10335 ft 304 kts 49°
2026-05-05 18:23 52.04302 -0.69340 10107 ft 301 kts 43°
2026-05-05 18:23 52.05800 -0.66946 9874 ft 300 kts 42°
2026-05-05 18:23 52.07260 -0.64582 9642 ft 292 kts 43°
2026-05-05 18:24 52.08663 -0.62234 9443 ft 287 kts 43°
2026-05-05 18:24 52.10054 -0.59906 9267 ft 287 kts 43°
2026-05-05 18:24 52.11449 -0.57587 9155 ft 287 kts 42°
2026-05-05 18:24 52.12851 -0.55264 9046 ft 288 kts 43°
2026-05-05 18:25 52.14247 -0.52940 8923 ft 283 kts 43°
2026-05-05 18:25 52.15137 -0.51449 8861 ft 270 kts 43°
2026-05-05 18:25 52.16847 -0.48592 8654 ft 260 kts 43°
2026-05-05 18:25 52.18098 -0.46509 8529 ft 255 kts 43°
2026-05-05 18:26 52.19315 -0.44477 8376 ft 253 kts 43°
2026-05-05 18:26 52.20552 -0.42417 8245 ft 253 kts 42°
2026-05-05 18:26 52.22017 -0.40892 7939 ft 251 kts 14°
2026-05-05 18:26 52.23704 -0.40557 7950 ft 240 kts 358°
2026-05-05 18:27 52.25388 -0.40614 7974 ft 247 kts 356°
2026-05-05 18:27 52.27118 -0.40700 7976 ft 247 kts 357°
2026-05-05 18:27 52.28844 -0.40691 7947 ft 248 kts
2026-05-05 18:27 52.30427 -0.39517 7902 ft 257 kts 37°
2026-05-05 18:28 52.31921 -0.34446 7947 ft 256 kts 84°
2026-05-05 18:28 52.31632 -0.31565 7981 ft 258 kts 103°
2026-05-05 18:28 52.31157 -0.28713 7983 ft 261 kts 104°
2026-05-05 18:29 52.30685 -0.25884 7961 ft 257 kts 107°
2026-05-05 18:29 52.29628 -0.23570 7905 ft 254 kts 141°
2026-05-05 18:29 52.28038 -0.22416 7921 ft 251 kts 168°
2026-05-05 18:29 52.26306 -0.21933 7973 ft 255 kts 172°
2026-05-05 18:30 52.24574 -0.21467 7975 ft 257 kts 172°
2026-05-05 18:30 52.22809 -0.20966 7955 ft 256 kts 172°
2026-05-05 18:30 52.21038 -0.20450 7972 ft 259 kts 171°
2026-05-05 18:30 52.19276 -0.19941 7951 ft 253 kts 171°
2026-05-05 18:31 52.17541 -0.19411 7946 ft 255 kts 170°
2026-05-05 18:31 52.15769 -0.18835 7966 ft 261 kts 170°
2026-05-05 18:31 52.14024 -0.18279 7946 ft 257 kts 171°
2026-05-05 18:31 52.12258 -0.17731 7948 ft 258 kts 171°
2026-05-05 18:32 52.10482 -0.17790 7785 ft 258 kts 197°
2026-05-05 18:32 52.08980 -0.19255 7445 ft 248 kts 226°
2026-05-05 18:32 52.07861 -0.21327 7300 ft 242 kts 231°
2026-05-05 18:32 52.06770 -0.23379 7194 ft 243 kts 230°
2026-05-05 18:33 52.05644 -0.25436 7059 ft 243 kts 230°
2026-05-05 18:33 52.04511 -0.27481 6915 ft 244 kts 230°
2026-05-05 18:33 52.03364 -0.29566 6775 ft 249 kts 230°
2026-05-05 18:33 52.02223 -0.31647 6628 ft 246 kts 230°
2026-05-05 18:34 52.01075 -0.33728 6498 ft 246 kts 230°
2026-05-05 18:34 51.99960 -0.35810 6352 ft 244 kts 233°
2026-05-05 18:34 51.99289 -0.38316 6084 ft 242 kts 256°
2026-05-05 18:34 51.98844 -0.40908 5923 ft 241 kts 257°
2026-05-05 18:35 51.98373 -0.43538 5743 ft 243 kts 256°
2026-05-05 18:35 51.97640 -0.46011 5471 ft 249 kts 236°
2026-05-05 18:35 51.96566 -0.48151 5300 ft 242 kts 232°
2026-05-05 18:35 51.95496 -0.50284 5172 ft 240 kts 232°
2026-05-05 18:36 51.94504 -0.52325 5029 ft 220 kts 233°
2026-05-05 18:36 51.93600 -0.54196 5001 ft 206 kts 234°
2026-05-05 18:36 51.92733 -0.55992 5003 ft 199 kts 233°
2026-05-05 18:36 51.91877 -0.57749 5004 ft 204 kts 234°
2026-05-05 18:37 51.91008 -0.59533 5002 ft 200 kts 234°
2026-05-05 18:37 51.90165 -0.61349 4997 ft 200 kts 238°
2026-05-05 18:37 51.89712 -0.63441 4985 ft 195 kts 258°
2026-05-05 18:37 51.89371 -0.65609 5005 ft 199 kts 258°
2026-05-05 18:38 51.88998 -0.67763 5006 ft 198 kts 256°
2026-05-05 18:38 51.88621 -0.69891 5002 ft 195 kts 256°
2026-05-05 18:38 51.88244 -0.72008 5000 ft 197 kts 256°
2026-05-05 18:38 51.87763 -0.74070 4956 ft 204 kts 242°
2026-05-05 18:39 51.86616 -0.75367 4836 ft 201 kts 197°
2026-05-05 18:39 51.85244 -0.75300 4701 ft 207 kts 165°
2026-05-05 18:39 51.83870 -0.74606 4520 ft 204 kts 160°
2026-05-05 18:39 51.82560 -0.73796 4299 ft 201 kts 149°
2026-05-05 18:40 51.81756 -0.72077 3940 ft 189 kts 103°
2026-05-05 18:40 51.81768 -0.70035 3870 ft 179 kts 78°
2026-05-05 18:40 51.82067 -0.68071 3898 ft 181 kts 72°
2026-05-05 18:40 51.82403 -0.66116 3918 ft 181 kts 71°
2026-05-05 18:41 51.82740 -0.64163 3847 ft 186 kts 71°
2026-05-05 18:41 51.83090 -0.62145 3605 ft 183 kts 72°
2026-05-05 18:41 51.83426 -0.60197 3356 ft 176 kts 72°
2026-05-05 18:41 51.83744 -0.58346 3124 ft 167 kts 71°
2026-05-05 18:42 51.84057 -0.56534 2886 ft 167 kts 71°
2026-05-05 18:42 51.84368 -0.54736 2664 ft 164 kts 71°
2026-05-05 18:42 51.84675 -0.52965 2451 ft 164 kts 72°
2026-05-05 18:42 51.84977 -0.51207 2226 ft 155 kts 71°
2026-05-05 18:43 51.85244 -0.49634 1969 ft 142 kts 72°
2026-05-05 18:43 51.85492 -0.48123 1785 ft 137 kts 72°
2026-05-05 18:43 51.85749 -0.46646 1616 ft 137 kts 69°
2026-05-05 18:43 51.86023 -0.45158 1467 ft 139 kts 69°
2026-05-05 18:44 51.86296 -0.43673 1289 ft 134 kts 72°
2026-05-05 18:44 51.86527 -0.42179 1092 ft 137 kts 71°
2026-05-05 18:44 51.86785 -0.40724 910 ft 130 kts 70°
2026-05-05 18:44 51.87034 -0.39313 723 ft 134 kts 72°
2026-05-05 18:45 51.87287 -0.37847 543 ft 131 kts 71°
2026-05-05 18:45 51.87507 -0.36590 535 ft 89 kts 75°
2026-05-05 18:45 51.87605 -0.36024 521 ft 28 kts 74°
2026-05-05 18:45 51.87673 -0.35915 522 ft 8 kts 354°
2026-05-05 18:46 51.87731 -0.35949 521 ft 11 kts 337°
2026-05-05 18:46 51.87780 -0.36036 523 ft 9 kts 285°
2026-05-05 18:46 51.87773 -0.36136 524 ft 10 kts 255°
2026-05-05 18:46 51.87753 -0.36253 523 ft 12 kts 254°
2026-05-05 18:47 51.87728 -0.36397 524 ft 14 kts 254°
2026-05-05 18:47 51.87702 -0.36551 526 ft 15 kts 254°
2026-05-05 18:47 51.87673 -0.36716 528 ft 15 kts 254°
2026-05-05 18:47 51.87644 -0.36879 531 ft 15 kts 254°
2026-05-05 18:48 51.87614 -0.37060 527 ft 16 kts 255°
2026-05-05 18:48 51.87594 -0.37171 527 ft 5 kts 254°
2026-05-05 18:48 51.87592 -0.37225 527 ft 6 kts 283°
2026-05-05 18:48 51.87617 -0.37256 527 ft 5 kts 339°
2026-05-05 18:49 51.87647 -0.37272 527 ft 3 kts 343°
2026-05-05 18:49 51.87653 -0.37275 526 ft 0 kts 343°